Location: Stull Observatory
(42.2506°N, 77.7903°W)
Time: 11:32:25
(UTC-04:00)

ISS - All Passes

Search period start: 27 September 2016 00:00
Search period end: 07 October 2016 00:00
Orbit: 400 x 410 km, 51.6° (Epoch: 28 September)

Date Brightness Start Highest point End Pass type
(mag) Time Alt. Az. Time Alt. Az. Time Alt. Az.
27 Sep - 00:04:07 10° NW 00:06:21 17° N 00:08:35 10° NE night (unlit)
27 Sep - 01:41:17 10° NW 01:43:45 19° NNE 01:46:13 10° ENE night (unlit)
27 Sep - 03:17:26 10° NW 03:20:43 65° NNE 03:23:59 10° ESE night (unlit)
27 Sep - 04:54:50 10° W 04:56:52 15° SW 04:58:54 10° S night (unlit)
27 Sep - 19:59:10 10° SSE 20:00:59 14° SE 20:02:49 10° E visible
27 Sep - 21:33:52 10° WSW 21:37:07 69° NNW 21:40:22 10° NE visible
27 Sep - 23:11:35 10° WNW 23:14:03 19° NNW 23:16:32 10° NE night (unlit)
28 Sep - 00:49:13 10° NW 00:51:26 17° N 00:53:40 10° NE night (unlit)
28 Sep - 02:25:28 10° NW 02:28:35 39° NNE 02:31:43 10° E night (unlit)
28 Sep - 04:02:07 10° WNW 04:05:00 28° SW 04:07:52 10° SSE night (unlit)
28 Sep - 20:41:51 10° SW 20:45:03 64° SE 20:48:18 10° ENE visible
28 Sep - 22:19:01 10° WNW 22:21:46 25° NNW 22:24:33 10° NE visible
28 Sep - 23:56:59 10° NW 23:59:06 16° N 00:01:12 10° NE night (unlit)
29 Sep - 01:33:31 10° NW 01:36:23 27° NNE 01:39:15 10° E night (unlit)
29 Sep - 03:09:49 10° WNW 03:13:03 53° SW 03:16:16 10° SE night (unlit)
29 Sep - 19:50:07 10° SSW 19:53:04 33° SE 19:56:03 10° ENE visible
29 Sep - 21:26:31 10° W 21:29:33 34° NNW 21:32:35 10° NE visible
29 Sep - 23:04:35 10° NW 23:06:45 16° N 23:08:54 10° NE night (unlit)
30 Sep - 00:41:33 10° NW 00:44:06 21° NNE 00:46:41 10° ENE night (unlit)
30 Sep - 02:17:42 10° NW 02:21:00 81° NE 02:24:17 10° ESE night (unlit)
30 Sep - 03:55:39 10° WSW 03:57:03 12° SW 03:58:27 10° SSW night (unlit)
30 Sep - 18:58:53 10° S 19:01:10 18° SE 19:03:26 10° E daylight
30 Sep - 20:34:10 10° WSW 20:37:22 56° NNW 20:40:36 10° NE visible
30 Sep - 22:12:01 10° WNW 22:14:23 18° N 22:16:46 10° NE visible
30 Sep - 23:49:29 10° NW 23:51:47 17° N 23:54:04 10° NE night (unlit)
01 Oct - 01:25:40 10° NW 01:28:52 46° NNE 01:32:03 10° ESE night (unlit)
01 Oct - 03:02:32 10° W 03:05:11 22° SW 03:07:49 10° S night (unlit)
01 Oct - 19:42:01 10° SW 19:45:15 81° SE 19:48:31 10° ENE visible
01 Oct - 21:19:24 10° WNW 21:22:03 22° NNW 21:24:43 10° NE visible
01 Oct - 22:57:17 10° NW 22:59:24 16° N 23:01:32 10° NE night (unlit)
02 Oct - 00:33:41 10° NW 00:36:39 30° NNE 00:39:36 10° E night (unlit)
02 Oct - 02:10:05 10° WNW 02:13:12 42° SW 02:16:20 10° SSE night (unlit)
02 Oct - 18:50:07 10° SSW 18:53:12 42° SE 18:56:19 10° ENE daylight
02 Oct - 20:26:50 10° W 20:29:46 30° NNW 20:32:43 10° NE visible
02 Oct - 22:04:54 10° NW 22:07:01 16° N 22:09:07 10° NE visible
02 Oct - 23:41:41 10° NW 23:44:21 22° NNE 23:47:02 10° ENE night (unlit)
03 Oct - 01:17:53 10° WNW 01:21:09 81° SW 01:24:26 10° SE night (unlit)
03 Oct - 17:58:38 10° S 18:01:13 22° SE 18:03:50 10° E daylight
03 Oct - 19:34:23 10° WSW 19:37:31 46° NNW 19:40:42 10° NE visible
03 Oct - 21:12:20 10° NW 21:14:37 17° N 21:16:53 10° NE visible
03 Oct - 22:49:37 10° NW 22:52:00 18° NNE 22:54:23 10° ENE night (unlit)
04 Oct - 00:25:46 10° NW 00:29:01 56° NNE 00:32:15 10° ESE night (unlit)
04 Oct - 02:02:55 10° W 02:05:13 18° SW 02:07:32 10° S night (unlit)
04 Oct - 17:07:58 10° SSE 17:09:18 12° SE 17:10:38 10° ESE daylight
04 Oct - 18:42:06 10° WSW 18:45:21 80° NNW 18:48:37 10° NE daylight
04 Oct - 20:19:42 10° WNW 20:22:14 20° NNW 20:24:47 10° NE visible
04 Oct - 21:57:27 10° NW 21:59:36 16° N 22:01:45 10° NE visible
04 Oct - 23:33:44 10° NW 23:36:47 35° NNE 23:39:50 10° E night (unlit)
05 Oct - 01:10:16 10° WNW 01:13:15 33° SW 01:16:14 10° SSE night (unlit)
05 Oct - 17:50:04 10° SW 17:53:14 53° SE 17:56:26 10° ENE daylight
05 Oct - 19:27:03 10° W 19:29:53 26° NNW 19:32:43 10° NE visible
05 Oct - 21:05:05 10° NW 21:07:10 16° N 21:09:15 10° NE visible
05 Oct - 22:41:42 10° NW 22:44:28 25° NNE 22:47:16 10° ENE night (unlit)
06 Oct - 00:17:57 10° WNW 00:21:11 64° SW 00:24:25 10° SE night (unlit)
06 Oct - 16:58:21 10° SSW 17:01:11 28° SE 17:04:02 10° ENE daylight
06 Oct - 18:34:31 10° W 18:37:34 38° NNW 18:40:41 10° NE daylight
06 Oct - 20:12:32 10° NW 20:14:43 16° N 20:16:55 10° NE visible
06 Oct - 21:49:38 10° NW 21:52:06 19° NNE 21:54:35 10° ENE visible
06 Oct - 23:25:46 10° NW 23:29:02 70° NNE 23:32:17 10° ESE night (unlit)
